Wind_Speed
25 25 26 28 28 28 29 30 31 32 32 30 31 30 29 27 28 27 27 31 33 39 34 28 20 22 26 28 32 28 30 26 22 25 29 30 27 29 29 31 31 30 31 32 32 32 34 27 32 27 28 24 31 33
28 29 29 29 28 28 30 30 31 33 32 32 33 33 31 31 32 32 29 30 33 39 40 34 31 31 30 23 28 25 26 24 18 8 11 12 20 24 24 25 29 27 15 21 21 39 40 40 40 20 23 15 23 20
31 31 31 30 29 28 30 29 33 32 33 34 34 34 32 33 34 34 31 31 33 39 38 24 16 13 17 14 16 35 29 24 27 29 25 26 23 21 26 26 30 40 38 36 29 36 39 41 37 33 29 23 15 29
36 35 32 30 28 28 29 29 30 32 32 32 34 35 32 33 33 32 30 29 31 34 33 3 10 11 18 25 29 33 32 21 19 25 25 27 28 22 23 24 34 33 38 35 34 26 35 27 36 28 34 33 24 19
38 37 34 28 31 30 31 33 32 34 33 35 34 34 31 32 32 29 29 27 23 23 33 34 20 7 18 21 19 28 28 23 23 27 27 34 30 24 29 32 40 37 36 34 42 27 19 27 18 24 30 29 25 25
39 38 34 32 29 32 27 34 30 31 31 34 33 32 29 30 30 30 27 23 26 29 34 38 28 2 5 10 18 23 34 33 30 29 30 31 32 24 31 37 34 32 29 36 34 17 19 22 22 28 30 34 30 23
39 37 36 33 30 33 31 31 28 30 30 31 31 30 27 28 27 24 23 24 24 24 30 30 22 19 19 14 15 11 15 24 21 26 34 35 35 35 38 45 41 27 33 34 28 31 19 21 28 35 35 30 27 18
37 35 34 33 32 30 31 28 27 27 29 29 30 27 25 26 23 18 23 23 24 23 24 14 28 28 17 20 20 15 12 13 25 30 37 38 36 37 45 39 22 14 20 19 18 14 16 24 24 33 33 17 29 13
34 33 32 31 30 29 30 26 24 26 27 27 27 26 24 24 19 24 25 26 25 19 16 18 25 21 25 22 21 19 20 27 26 32 37 34 31 17 21 21 18 11 6 13 15 19 14 24 15 33 17 17 16 15
32 31 29 29 27 25 24 23 24 24 25 25 26 25 24 23 25 27 26 14 13 15 16 16 17 23 24 30 20 27 13 11 12 3 10 4 8 12 24 25 23 10 6 19 25 19 25 24 37 5 18 18 8 7
30 28 27 26 25 24 24 25 25 23 25 23 25 23 23 24 24 18 8 9 8 11 12 25 22 21 25 27 22 8 10 8 7 2 2 10 21 17 17 21 16 17 12 25 21 20 19 17 26 24 23 20 16 12
28 26 25 24 24 21 21 24 22 22 22 22 21 21 21 18 6 4 6 7 9 9 26 35 19 16 24 21 8 5 5 6 6 10 5 9 14 14 13 16 15 8 14 21 20 18 13 17 10 15 15 13 11 11
26 24 21 17 14 21 19 20 21 19 20 21 19 17 9 6 4 4 3 7 10 24 30 28 17 18 14 14 7 9 5 6 9 6 6 9 11 13 13 12 9 6 4 8 10 11 14 12 9 8 7 6 10 12
24 22 20 20 19 18 20 19 17 17 16 16 12 7 7 5 3 5 10 14 17 25 27 19 13 18 18 11 5 6 8 8 9 4 7 14 12 11 9 8 7 8 6 5 6 9 13 14 14 13 10 9 12 12
22 21 22 19 21 22 19 18 15 17 18 12 7 8 8 2 5 10 19 12 17 24 12 17 17 13 12 6 3 4 4 3 8 7 11 8 8 7 4 4 2 3 5 4 5 8 13 15 14 14 11 12 11 11
20 19 18 19 18 14 15 15 17 18 19 15 14 12 7 11 10 9 13 15 18 21 18 15 15 6 6 8 5 2 7 1 7 12 8 8 6 6 7 6 3 3 6 14 14 9 8 11 11 12 10 10 8 10
18 17 15 12 14 17 15 19 19 21 14 12 11 6 5 8 8 7 11 18 19 19 11 8 7 5 8 7 9 5 8 9 16 10 6 4 4 4 5 6 8 7 4 5 11 10 12 17 11 12 16 11 7 6
15 15 12 17 19 16 20 21 23 21 23 21 17 13 17 15 12 9 12 12 17 16 7 8 12 11 5 7 12 6 3 6 7 7 5 2 2 3 4 5 8 9 9 9 7 6 3 7 6 9 5 2 7 8
14 15 20 21 19 18 20 21 19 16 21 16 11 7 8 11 13 18 18 18 21 14 9 9 5 7 10 15 8 6 16 10 6 5 2 4 3 7 9 10 10 9 10 10 12 11 13 11 9 3 1 3 7 9
10 11 13 14 16 18 19 11 14 15 9 4 7 5 10 13 14 11 9 15 12 8 7 7 6 8 10 1 7 12 13 14 14 8 5 5 4 5 6 6 8 8 9 10 7 8 9 5 2 3 8 15 14 13
17 13 12 14 13 16 15 10 13 7 7 8 11 9 9 9 11 8 8 13 12 12 10 4 6 4 8 3 3 5 4 6 7 8 3 4 3 10 8 3 2 2 4 4 1 4 8 7 9 17 17 20 17 12
15 14 14 16 17 19 18 16 13 15 13 8 8 12 12 9 9 11 11 15 13 8 11 8 6 6 4 5 3 6 3 3 1 2 6 4 4 9 6 5 2 2 3 5 7 8 10 19 14 13 14 12 12 9
19 15 16 19 15 11 7 12 15 17 15 3 3 6 2 4 6 11 13 12 9 4 10 7 6 8 11 12 7 3 2 0 0 4 6 4 11 9 10 8 6 6 7 8 11 12 11 11 7 6 6 10 11 9
17 13 12 7 10 8 9 7 6 3 2 3 6 4 5 10 8 10 13 14 12 11 11 11 13 13 12 10 9 6 3 4 2 4 2 2 5 8 9 6 8 9 16 8 10 8 9 4 3 5 8 10 9 11
13 11 8 9 7 6 6 6 7 10 10 5 7 10 12 10 10 16 10 9 13 10 10 9 11 7 7 4 2 5 6 6 7 2 3 4 2 7 5 5 7 6 14 13 8 6 5 2 3 6 8 11 13 15
10 8 7 6 8 5 4 1 4 6 5 7 7 5 11 10 10 7 7 11 16 14 15 13 7 11 13 14 11 8 11 10 5 3 2 4 6 8 8 4 4 9 16 10 5 6 5 3 2 4 9 11 11 13
12 9 8 11 11 7 7 9 5 4 7 7 5 9 11 6 5 8 6 6 11 13 15 3 5 12 10 16 13 8 13 10 8 2 3 1 4 8 8 7 9 16 15 7 3 5 5 6 7 8 10 10 9 12
12 11 12 7 11 13 9 8 5 6 4 4 8 8 5 5 5 7 9 7 10 11 13 15 17 10 7 6 8 2 17 11 10 5 3 1 2 7 2 7 8 13 8 6 6 7 7 8 9 10 10 10 10 12
13 9 10 12 11 10 9 11 13 10 11 7 11 11 11 12 17 17 13 9 12 10 10 13 16 9 16 15 11 8 6 6 8 6 7 6 4 3 5 8 9 3 0 4 6 8 8 8 8 9 10 10 8 11
15 12 14 11 11 13 11 7 8 7 6 7 5 8 13 13 9 1 2 5 13 15 12 11 10 13 6 8 10 8 12 17 16 13 13 11 9 4 6 6 1 2 4 5 6 7 7 6 5 8 9 10 10 11
6 8 10 10 11 10 11 11 7 9 10 4 5 7 8 6 5 5 6 9 11 18 15 15 14 11 13 9 11 9 11 14 12 12 17 14 7 6 10 1 4 5 6 6 6 5 5 5 10 11 7 3 2 2
13 12 10 10 9 11 8 10 12 13 13 10 11 10 7 9 9 7 6 7 13 15 11 12 11 9 12 13 9 12 15 14 9 5 14 11 10 11 3 2 4 6 6 6 6 5 4 10 11 6 4 8 9 9
8 9 9 8 7 6 5 8 8 9 12 14 14 12 11 13 13 9 7 9 17 15 13 7 4 8 9 11 12 14 13 5 10 17 17 16 16 9 4 5 4 5 4 5 6 5 8 9 1 5 5 9 10 12
Wind_Direction
309 310 318 321 320 324 329 328 334 335 334 337 337 334 327 322 318 316 315 310 304 297 302 292 286 285 280 273 276 282 280 274 280 267 265 265 271 270 272 263 263 264 265 268 268 261 259 240 235 262 280 289 261 254
304 301 307 313 317 317 324 325 329 330 331 330 331 331 328 325 323 322 319 310 300 295 296 294 288 279 281 282 281 277 274 276 243 256 273 280 265 266 264 283 257 270 260 270 274 260 267 248 255 268 283 279 243 230
307 300 296 302 307 312 319 323 326 326 326 327 331 332 329 327 325 326 325 317 309 306 307 307 252 229 229 243 259 279 269 284 275 242 274 276 268 277 284 280 274 261 263 265 290 250 256 259 263 266 257 250 233 231
305 302 294 294 298 302 309 313 319 324 326 326 329 331 328 326 327 328 325 321 318 315 323 82 318 261 253 264 259 260 272 261 282 228 264 270 268 272 279 277 275 276 271 256 260 267 258 242 253 235 236 241 234 199
299 298 301 288 292 295 294 307 308 317 319 323 323 328 326 325 327 327 323 327 324 319 311 319 325 287 289 245 243 233 254 253 268 238 247 261 269 283 275 273 265 275 264 261 278 284 286 236 190 207 206 198 197 207
296 293 290 286 282 293 293 304 305 312 316 319 321 325 323 324 327 325 326 333 332 326 321 322 335 4 356 283 273 279 233 225 239 239 253 262 265 258 269 272 272 276 252 250 279 251 260 220 168 173 184 189 190 192
292 291 288 284 282 281 289 299 300 308 310 315 321 322 320 321 324 324 324 323 323 322 318 316 326 345 340 331 315 290 292 214 246 249 243 258 261 264 269 266 272 270 249 255 264 284 247 252 191 169 185 180 163 162
287 286 285 283 279 281 288 286 293 305 307 310 320 319 318 317 319 318 321 320 316 317 310 298 312 329 352 354 340 293 306 268 258 254 257 264 274 271 270 274 279 225 252 266 266 262 308 246 253 211 225 216 170 172
286 284 283 283 281 281 283 286 289 301 304 307 319 315 315 315 314 320 319 315 310 302 292 300 322 327 346 341 341 325 277 284 272 256 253 262 270 252 268 259 276 213 228 283 245 220 240 226 209 227 165 165 156 155
284 282 282 281 276 278 275 285 293 299 300 304 318 315 309 316 320 319 321 320 337 314 304 325 338 331 335 343 320 318 294 280 275 320 142 238 201 132 67 75 85 109 234 271 217 235 203 229 207 195 141 174 155 156
283 280 279 277 275 271 271 278 291 293 295 306 313 310 306 308 308 314 315 330 316 320 332 338 328 333 340 337 323 302 300 303 307 71 119 107 124 109 94 83 71 69 128 99 99 83 129 129 100 148 161 166 169 178
280 277 276 276 271 264 273 281 287 287 295 304 306 303 301 296 290 289 296 306 318 324 321 329 319 314 326 326 300 346 303 291 289 342 95 105 84 72 63 56 70 101 101 95 104 115 151 192 183 171 163 171 183 194
276 273 268 269 258 261 268 278 282 284 295 304 309 308 282 264 248 266 300 295 308 318 327 327 314 327 328 340 319 336 315 319 318 354 65 125 124 118 108 109 100 92 107 120 136 152 160 169 198 220 237 215 201 217
270 265 253 250 264 271 275 275 272 286 298 297 301 273 267 235 249 268 294 302 317 325 311 314 310 310 317 320 319 319 333 348 4 38 118 143 136 135 143 124 113 112 113 144 148 148 162 168 172 187 196 200 212 219
267 260 258 257 257 262 264 261 270 279 278 277 254 251 250 146 261 286 298 309 298 312 317 319 315 306 315 298 306 288 303 5 16 84 135 114 115 114 78 65 89 142 165 185 198 203 192 191 205 214 215 225 223 226
266 260 256 256 254 246 246 266 268 274 266 260 244 247 251 254 251 281 306 309 311 320 309 314 323 317 324 322 316 307 296 217 119 108 119 79 68 34 32 31 29 88 165 171 167 171 174 160 161 170 203 214 225 226
263 257 248 242 241 244 256 262 274 270 260 252 264 251 294 306 292 317 304 296 303 307 308 305 314 346 334 337 326 355 358 132 126 116 110 93 51 31 39 43 61 69 77 166 178 174 188 174 202 191 162 145 173 213
251 243 226 237 241 245 265 263 254 253 261 271 268 259 233 234 248 270 292 279 291 313 282 293 327 324 337 345 12 108 103 18 136 126 125 154 174 109 87 97 89 89 103 104 115 156 212 208 249 211 311 197 270 280
237 242 234 235 253 256 258 258 250 256 269 283 267 241 256 257 260 259 259 270 290 285 231 250 292 317 3 348 335 17 358 213 161 111 123 173 114 72 70 85 83 85 78 80 92 82 68 63 66 102 242 273 299 294
236 224 219 235 259 270 245 249 251 260 270 221 203 227 270 267 271 260 275 265 293 251 231 228 283 320 350 356 299 27 37 42 109 91 97 130 91 51 20 38 70 71 77 66 66 56 48 29 304 277 307 315 321 308
234 237 244 253 276 250 237 238 247 280 311 256 220 227 230 247 271 280 261 264 272 258 227 180 304 309 129 44 56 75 37 70 52 83 77 88 329 324 326 283 115 50 80 47 268 17 360 351 312 312 319 315 314 296
239 251 256 269 274 253 255 249 244 236 249 283 236 210 219 238 248 248 255 257 272 264 210 196 282 309 274 75 14 18 62 151 162 265 263 268 42 57 82 106 82 46 38 320 303 322 336 327 321 316 328 341 335 324
238 257 247 233 238 249 263 239 238 238 234 215 317 295 267 283 243 259 249 263 265 216 205 199 278 276 278 279 302 335 357 67 185 137 110 80 91 79 76 80 62 36 7 320 325 352 341 346 16 34 34 23 29 43
225 217 218 229 227 230 238 224 214 188 264 218 207 254 263 272 244 243 253 252 214 220 236 240 237 261 278 258 254 249 191 186 165 165 182 200 122 102 98 88 56 345 332 6 23 5 2 31 70 35 22 32 59 68
208 212 222 238 234 237 249 245 233 230 234 229 245 256 271 298 276 259 248 230 243 210 224 242 260 269 173 156 239 202 152 158 130 116 226 204 56 324 203 116 72 6 9 15 11 16 26 64 39 21 44 74 74 81
216 220 220 213 199 171 193 238 255 256 236 239 241 258 241 260 278 267 294 233 230 224 223 233 204 205 209 211 213 194 167 167 153 203 190 61 31 59 76 110 39 356 5 13 10 29 45 94 87 77 90 87 87 85
226 228 220 203 169 191 241 212 213 239 230 237 263 224 246 246 252 248 258 249 243 241 189 239 239 203 221 214 210 166 174 201 156 209 284 237 23 77 102 56 13 351 351 8 30 64 88 100 100 101 101 91 90 84
236 233 220 190 221 198 205 218 231 252 237 238 259 245 235 231 259 281 292 261 206 216 207 225 218 222 158 134 121 127 177 192 176 153 64 341 357 315 282 18 347 330 340 63 94 94 106 107 103 101 97 86 80 77
241 240 221 201 209 238 237 214 202 188 216 207 286 273 293 283 292 295 279 232 195 195 188 217 205 150 204 221 243 240 243 157 151 196 233 257 198 72 13 344 354 338 360 85 102 103 94 92 100 102 100 99 88 76
252 220 202 219 232 227 223 227 224 223 268 271 289 292 302 289 210 163 92 286 180 177 180 179 185 207 175 171 190 193 199 198 194 208 229 224 244 289 318 325 55 130 117 105 94 91 92 94 102 100 74 56 51 51
194 198 230 228 233 243 250 233 229 246 225 240 261 295 321 332 312 1 15 169 141 149 151 164 161 162 183 195 183 178 171 198 214 214 209 196 203 263 272 49 122 126 112 100 93 85 78 96 77 56 29 47 84 21
190 210 220 235 243 213 215 240 222 223 222 237 262 228 226 269 257 226 218 233 196 199 169 159 173 186 176 189 201 187 216 219 221 211 195 156 216 222 292 284 142 114 99 95 89 75 68 72 38 15 13 21 9 18
183 190 210 211 223 204 217 211 216 242 246 238 229 223 230 233 239 251 259 198 181 173 173 178 157 204 212 222 207 197 195 193 153 147 160 157 154 178 204 156 135 108 115 117 99 79 91 98 317 323 308 310 339 327
Height
3209 3206 3203 3199 3196 3192 3188 3184 3180 3175 3171 3166 3163 3158 3153 3149 3145 3144 3139 3133 3127 3119 3121 3118 3116 3114 3113 3113 3109 3110 3109 3111 3110 3108 3107 3107 3104 3105 3103 3105 3108 3108 3109 3107 3108 3109 3103 3096 3101 3107 3107 3106 3104 3106
3203 3200 3197 3194 3191 3187 3184 3180 3176 3171 3166 3161 3157 3152 3149 3144 3138 3135 3133 3126 3119 3110 3108 3109 3107 3105 3104 3104 3102 3103 3102 3106 3104 3101 3102 3099 3099 3097 3097 3094 3098 3101 3102 3096 3104 3093 3093 3091 3095 3099 3100 3100 3099 3099
3196 3193 3190 3188 3186 3183 3179 3175 3172 3167 3162 3157 3152 3147 3142 3138 3133 3127 3123 3116 3110 3101 3096 3095 3096 3096 3093 3094 3095 3090 3092 3096 3094 3098 3096 3095 3093 3093 3090 3091 3091 3090 3092 3091 3090 3082 3085 3085 3082 3094 3096 3097 3095 3098
3188 3185 3182 3181 3179 3177 3174 3170 3166 3162 3157 3152 3147 3142 3137 3132 3128 3122 3118 3112 3104 3096 3091 3090 3089 3091 3089 3086 3086 3086 3086 3088 3088 3089 3089 3089 3087 3088 3086 3086 3082 3083 3083 3084 3079 3078 3076 3082 3087 3089 3087 3091 3092 3093
3180 3177 3174 3173 3171 3169 3167 3164 3161 3158 3153 3148 3142 3137 3132 3127 3122 3118 3112 3108 3103 3099 3090 3082 3081 3081 3076 3075 3075 3077 3079 3080 3082 3084 3083 3080 3082 3084 3078 3076 3072 3076 3072 3077 3070 3074 3075 3070 3075 3081 3079 3080 3083 3087
3170 3167 3165 3164 3162 3161 3159 3158 3155 3151 3147 3142 3137 3132 3127 3122 3117 3112 3107 3105 3100 3093 3084 3076 3076 3073 3073 3073 3072 3073 3072 3070 3072 3074 3074 3075 3077 3078 3071 3063 3066 3068 3070 3071 3068 3066 3062 3062 3065 3069 3074 3073 3077 3084
3160 3157 3155 3154 3153 3152 3152 3151 3149 3145 3141 3136 3131 3127 3122 3118 3114 3109 3106 3102 3097 3092 3086 3077 3072 3073 3074 3071 3069 3067 3063 3062 3067 3065 3066 3069 3070 3070 3062 3052 3054 3056 3059 3063 3062 3059 3052 3053 3055 3057 3062 3075 3070 3078
3148 3147 3145 3144 3144 3143 3143 3142 3141 3138 3134 3130 3125 3121 3117 3114 3110 3106 3102 3098 3095 3091 3086 3079 3071 3068 3070 3069 3067 3064 3062 3061 3059 3059 3059 3060 3060 3057 3044 3040 3045 3053 3059 3057 3055 3053 3048 3047 3039 3049 3045 3039 3053 3077
3138 3137 3136 3136 3135 3134 3134 3134 3134 3131 3128 3124 3120 3116 3112 3111 3106 3102 3097 3093 3090 3091 3084 3078 3073 3069 3069 3068 3064 3061 3058 3054 3051 3048 3048 3052 3049 3045 3038 3035 3039 3046 3051 3051 3048 3047 3048 3047 3047 3051 3062 3073 3062 3070
3128 3128 3127 3126 3126 3127 3127 3127 3126 3124 3121 3119 3114 3111 3106 3104 3100 3097 3091 3089 3086 3085 3080 3076 3074 3072 3070 3064 3060 3057 3051 3048 3039 3039 3042 3037 3040 3046 3042 3038 3040 3049 3049 3050 3046 3038 3041 3033 3041 3041 3042 3069 3062 3066
3119 3118 3118 3118 3118 3118 3119 3120 3119 3118 3116 3114 3110 3108 3105 3100 3096 3093 3090 3089 3087 3084 3079 3076 3074 3072 3071 3066 3062 3058 3053 3047 3043 3044 3046 3047 3046 3047 3046 3045 3048 3045 3045 3043 3048 3040 3049 3058 3064 3069 3071 3070 3071 3076
3110 3110 3110 3110 3109 3111 3112 3114 3113 3112 3110 3108 3106 3103 3101 3097 3094 3093 3091 3090 3087 3083 3079 3074 3072 3072 3070 3065 3059 3058 3054 3051 3045 3044 3046 3052 3051 3051 3051 3050 3055 3054 3053 3050 3057 3060 3063 3068 3072 3077 3080 3081 3079 3080
3101 3101 3103 3104 3104 3105 3105 3106 3107 3106 3105 3103 3100 3098 3097 3095 3093 3092 3091 3089 3088 3083 3079 3072 3069 3070 3068 3067 3064 3062 3057 3053 3049 3047 3049 3056 3058 3056 3059 3060 3059 3057 3056 3060 3062 3063 3067 3069 3069 3069 3072 3074 3076 3079
3093 3094 3096 3097 3098 3099 3099 3099 3101 3101 3101 3099 3097 3096 3094 3090 3089 3090 3090 3089 3087 3082 3079 3073 3069 3069 3067 3067 3066 3064 3061 3057 3056 3054 3057 3058 3060 3060 3063 3063 3064 3061 3059 3057 3059 3064 3069 3070 3071 3072 3074 3076 3080 3081
3086 3087 3089 3090 3090 3092 3092 3094 3095 3096 3096 3096 3095 3091 3087 3088 3089 3089 3088 3086 3084 3082 3077 3074 3071 3070 3068 3067 3066 3065 3063 3062 3061 3058 3062 3061 3062 3062 3064 3065 3066 3068 3067 3065 3066 3067 3069 3070 3071 3072 3075 3076 3077 3078
3079 3081 3082 3083 3085 3086 3088 3089 3090 3091 3089 3090 3088 3085 3085 3086 3086 3087 3086 3084 3081 3080 3077 3075 3070 3069 3068 3066 3066 3065 3064 3061 3063 3063 3065 3063 3064 3064 3065 3066 3066 3067 3068 3069 3070 3070 3070 3070 3070 3072 3074 3074 3075 3078
3073 3075 3077 3078 3080 3082 3083 3084 3084 3085 3083 3081 3080 3080 3081 3082 3083 3083 3083 3081 3079 3079 3076 3076 3073 3071 3070 3066 3063 3062 3059 3058 3061 3065 3068 3068 3068 3068 3068 3068 3067 3067 3066 3066 3067 3068 3070 3071 3072 3072 3071 3073 3075 3077
3068 3071 3072 3074 3076 3075 3077 3078 3078 3077 3074 3074 3075 3076 3076 3078 3079 3081 3081 3078 3077 3077 3077 3077 3076 3075 3072 3068 3066 3065 3063 3065 3064 3066 3068 3069 3072 3071 3071 3070 3070 3070 3069 3067 3067 3068 3068 3070 3070 3068 3067 3070 3072 3072
3063 3065 3067 3068 3070 3072 3073 3071 3072 3070 3068 3069 3069 3070 3073 3074 3075 3075 3075 3075 3075 3074 3075 3075 3075 3073 3073 3071 3070 3067 3064 3062 3064 3066 3067 3068 3069 3069 3068 3067 3067 3066 3066 3065 3065 3066 3065 3064 3063 3065 3067 3069 3069 3069
3060 3061 3062 3065 3066 3067 3067 3068 3068 3066 3064 3065 3065 3066 3069 3070 3070 3070 3071 3071 3072 3071 3072 3073 3074 3075 3074 3072 3072 3068 3069 3066 3066 3068 3069 3070 3069 3068 3068 3067 3068 3069 3069 3067 3067 3066 3065 3066 3066 3067 3067 3066 3065 3065
3056 3056 3059 3061 3062 3063 3064 3063 3063 3063 3061 3061 3063 3063 3064 3066 3066 3066 3068 3069 3069 3068 3070 3070 3072 3070 3071 3073 3073 3073 3072 3071 3072 3072 3072 3071 3070 3070 3071 3072 3072 3071 3071 3070 3067 3068 3067 3066 3066 3065 3064 3062 3062 3061
3054 3055 3056 3057 3058 3058 3058 3059 3059 3059 3059 3059 3059 3059 3060 3061 3062 3064 3065 3064 3064 3066 3068 3068 3069 3071 3070 3072 3073 3074 3074 3073 3074 3074 3072 3071 3070 3071 3072 3072 3072 3072 3071 3069 3067 3068 3068 3066 3065 3063 3061 3060 3057 3055
3050 3050 3052 3053 3055 3055 3056 3053 3054 3055 3056 3057 3058 3058 3058 3058 3059 3061 3060 3061 3062 3064 3066 3067 3067 3070 3071 3072 3073 3075 3075 3073 3072 3073 3074 3072 3072 3073 3074 3075 3074 3073 3071 3067 3067 3067 3066 3065 3064 3064 3064 3062 3059 3056
3046 3048 3049 3050 3051 3051 3051 3051 3051 3053 3053 3054 3056 3056 3058 3058 3057 3057 3057 3058 3060 3061 3063 3065 3065 3067 3069 3070 3072 3074 3074 3074 3075 3076 3076 3076 3075 3076 3076 3075 3073 3073 3070 3069 3069 3068 3067 3067 3067 3066 3065 3062 3061 3059
3047 3047 3048 3046 3047 3048 3048 3048 3049 3051 3052 3054 3056 3056 3056 3054 3055 3054 3054 3056 3058 3060 3061 3062 3065 3065 3066 3070 3072 3072 3073 3074 3076 3078 3077 3077 3078 3078 3077 3076 3075 3073 3071 3070 3069 3069 3068 3068 3069 3068 3067 3065 3063 3063
3043 3043 3044 3043 3044 3046 3049 3050 3050 3050 3051 3052 3053 3054 3054 3054 3053 3052 3052 3053 3054 3056 3059 3062 3063 3066 3067 3067 3069 3071 3073 3074 3075 3077 3078 3077 3078 3076 3074 3073 3075 3073 3071 3071 3070 3069 3069 3069 3070 3069 3068 3067 3068 3068
3038 3039 3040 3042 3042 3046 3047 3048 3049 3050 3052 3052 3052 3052 3052 3052 3052 3051 3051 3051 3050 3051 3055 3054 3058 3062 3064 3065 3068 3069 3071 3071 3071 3076 3077 3077 3076 3076 3075 3076 3075 3074 3073 3072 3071 3071 3071 3071 3071 3071 3071 3072 3072 3072
3035 3035 3038 3041 3042 3043 3044 3046 3048 3049 3050 3051 3051 3049 3049 3049 3049 3049 3049 3049 3049 3051 3052 3055 3058 3059 3062 3064 3063 3066 3069 3072 3077 3074 3075 3076 3075 3077 3078 3077 3077 3076 3074 3074 3074 3074 3074 3074 3074 3074 3075 3075 3075 3075
3031 3034 3036 3036 3040 3041 3042 3043 3044 3046 3046 3044 3048 3046 3047 3047 3047 3046 3046 3047 3049 3050 3052 3054 3058 3060 3061 3064 3065 3067 3069 3070 3074 3074 3075 3074 3074 3078 3078 3077 3077 3077 3076 3076 3076 3076 3076 3077 3077 3077 3077 3078 3078 3077
3027 3029 3031 3034 3036 3037 3040 3042 3043 3045 3046 3046 3045 3046 3045 3043 3043 3044 3043 3044 3045 3048 3051 3053 3055 3058 3060 3062 3065 3066 3068 3071 3072 3074 3074 3075 3076 3076 3077 3077 3077 3078 3078 3078 3079 3079 3079 3079 3080 3079 3079 3079 3079 3080
3024 3026 3029 3031 3033 3036 3037 3038 3040 3042 3042 3043 3045 3045 3044 3043 3044 3043 3044 3043 3044 3049 3050 3053 3055 3056 3059 3060 3063 3064 3066 3068 3069 3070 3073 3074 3076 3078 3079 3078 3078 3079 3080 3080 3081 3081 3081 3081 3080 3081 3083 3082 3082 3082
3021 3025 3029 3030 3032 3033 3035 3037 3037 3038 3039 3041 3042 3043 3044 3044 3044 3044 3045 3045 3047 3049 3050 3052 3055 3058 3059 3060 3061 3062 3060 3065 3067 3069 3072 3073 3075 3079 3079 3078 3079 3080 3081 3082 3082 3082 3082 3081 3083 3085 3084 3084 3084 3083
3021 3024 3027 3029 3031 3032 3033 3034 3035 3036 3037 3037 3038 3039 3040 3042 3042 3043 3043 3044 3047 3050 3051 3052 3054 3056 3057 3058 3060 3062 3064 3066 3066 3067 3070 3074 3076 3078 3079 3079 3080 3082 3082 3083 3084 3084 3083 3084 3086 3086 3085 3085 3083 3083